Flight Track Log - Related Links

Times and Time Zones

All times are in EDT time to prevent confusion due to time zone crossing. See the SWA2009 flight status page for this flight to view local times or setup timezone preferences in your user account.

Time Position Orientation Groundspeed Altitude Reporting Facility
EDT Latitude Longitude Course Direction KTS MPH feet Rate Location/Type
09:50AM 42.7672 -73.8061 319° Northwest 152 175 1,600  Level Boston Center
09:51AM 42.8106 -73.8581 319° Northwest 193 222 4,800 3,316 Climbing Boston Center
09:52AM 42.8328 -73.9039 303° West 189 217 7,900 3,771 Climbing Boston Center
09:53AM 42.8467 -73.9664 287° West 200 230 11,400 2,650 Climbing Boston Center
09:54AM 42.7833 -74.0186 211° Southwest 179 206 13,200 2,550 Climbing Boston Center
09:55AM 42.7075 -74.0789 210° Southwest 238 274 16,500 3,458 Climbing Boston Center
09:56AM 42.6133 -74.0989 189° South 318 366 20,000 3,174 Climbing Boston Center
09:57AM 42.5164 -74.0400 156° South 323 372 22,900 2,926 Climbing Boston Center
09:58AM 42.4128 -73.9783 156° South 362 417 25,900 2,281 Climbing Boston Center
09:59AM 42.3069 -73.9589 172° South 377 434 27,500 1,033 Climbing Boston Center
10:00AM 42.2000 -73.9928 193° South 383 441 28,000 254 Climbing Boston Center
10:01AM 42.0975 -74.0208 191° South 388 447 28,000  Level Boston Center
10:02AM 41.9928 -74.0547 194° South 388 447 28,000  Level Boston Center
10:04AM 41.7428 -74.1239 192° South 390 449 28,000  Level New York Center
10:05AM 41.6400 -74.1547 193° South 390 449 28,000  Level New York Center
10:06AM 41.5392 -74.1828 192° South 385 443 28,000  Level New York Center
10:07AM 41.4383 -74.2136 193° South 377 434 28,000  Level New York Center
10:08AM 41.3375 -74.2444 193° South 377 434 28,000  Level New York Center
10:09AM 41.2389 -74.2669 190° South 382 440 28,000  Level New York Center
10:10AM 41.1403 -74.2975 193° South 382 440 28,000  Level New York Center
10:11AM 41.0372 -74.3308 194° South 377 434 28,000  Level New York Center
10:12AM 40.9322 -74.3581 191° South 377 434 28,000  Level New York Center
10:13AM 40.8311 -74.3883 193° South 377 434 28,000  Level New York Center
10:14AM 40.7542 -74.4583 215° Southwest 349 402 28,000 -51 Level New York Center
10:15AM 40.6947 -74.5564 231° Southwest 342 394 27,900 -600 Descending New York Center
10:16AM 40.6372 -74.6544 232° Southwest 337 388 26,800 -1,000 Descending New York Center
10:17AM 40.6000 -74.7697 247° West 342 394 25,900 -950 Descending New York Center
10:18AM 40.5689 -74.8883 251° West 342 394 24,900 -950 Descending New York Center
10:19AM 40.5397 -75.0067 252° West 342 394 24,000 -942 Descending New York Center
10:20AM 40.5039 -75.1328 250° West 355 409 23,000 -984 Descending New York Center
10:21AM 40.4197 -75.2119 216° Southwest 360 414 22,000 -966 Descending New York Center
10:22AM 40.3353 -75.2964 217° Southwest 376 433 21,100 -966 Descending New York Center
10:23AM 40.2467 -75.3747 214° Southwest 382 440 20,100 -1,041 Descending New York Center
10:24AM 40.1492 -75.4661 216° Southwest 388 447 19,000 -545 Descending New York Center
10:25AM 40.0714 -75.5342 214° Southwest 371 427 19,000  Level New York Center
10:26AM 40.0003 -75.5969 214° Southwest 327 376 19,000 -458 Level New York Center
10:27AM 39.9353 -75.6547 214° Southwest 321 369 18,100 -1,000 Descending New York Center
10:28AM 39.8792 -75.7483 232° Southwest 308 354 17,000 -984 Descending New York Center
10:29AM 39.8361 -75.8292 235° Southwest 308 354 16,100 -1,138 Descending New York Center
10:31AM 39.7500 -76.0000 237° Southwest 284 327 13,700 -1,337 Descending Potomac TRACON
10:32AM 39.7000 -76.0833 232° Southwest 271 312 12,200 -803 Descending Potomac TRACON
10:33AM 39.6500 -76.1667 232° Southwest 254 292 12,000 -619 Descending Potomac TRACON
10:34AM 39.6167 -76.2333 237° Southwest 260 299 10,900 -1,450 Descending Potomac TRACON
10:35AM 39.5500 -76.3000 218° Southwest 261 300 9,100 -1,686 Descending Potomac TRACON
10:36AM 39.5000 -76.3500 218° Southwest 262 302 7,500 -1,488 Descending Potomac TRACON
10:37AM 39.4333 -76.4000 210° Southwest 252 290 6,100 -1,250 Descending Potomac TRACON
10:38AM 39.3667 -76.4333 201° Southwest 266 306 5,000 -1,250 Descending Potomac TRACON
10:39AM 39.3000 -76.4500 191° South 261 300 3,600 -1,095 Descending Potomac TRACON
10:40AM 39.2333 -76.5000 210° Southwest 259 298 2,700 -762 Descending Potomac TRACON
10:41AM 39.1667 -76.5333 201° Southwest 241 277 2,000 -700 Descending Potomac TRACON

Login

Don't have an account? Register now (free) for customized features, flight alerts, and more!